(347499) = 1998 SV2 = 2005 WV

Discovered at Catalina on 1998-09-19 by CSS.

Orbit

Orbit type: Mars-crosser

Note: WebGL enabled browser required.

epoch2024-03-31.0
epoch JD2460400.5
perihelion date2022-09-21.11217
perihelion JD2459843.61217
argument of perihelion (°)45.32256
ascending node (°)310.51536
inclination (°)24.76311
eccentricity0.3115025
perihelion distance (AU)1.5664515
Tisserand w.r.t. Jupiter3.4
ΔV w.r.t. Earth (km/sec)10.6
semimajor axis (AU)2.2751740
mean anomaly (°)159.93726
mean daily motion (°/day)0.28719830
aphelion distance (AU)2.984
period (years)3.43
P-vector [x]0.94765470
P-vector [y]-0.22403836
P-vector [z]0.22750250
Q-vector [x]0.02342669
Q-vector [y]0.75937610
Q-vector [z]0.65023006
absolute magnitude16.72
phase slope0.15
uncertainty0
referenceMPEC 2024-D35
observations used515
oppositions9
arc length (days)9280
first opposition used1998
last opposition used2024
residual rms (arc-secs)0.62
perturbers coarse indicatorM-v
perturbers precise indicator003Ek
first observation date used1998-09-19.0
last observation date used2024-02-15.0
computer nameMPCLINUX
JD of orbit computation2456272.064170
perihelion JD uncertainty (days)3.6635E-04
argument of perihelion uncertainty (°)9.0960E-05
ascending node uncertainty (°)4.3389E-05
inclination uncertainty (°)2.6836E-05
eccentricity uncertainty 6.9369E-07
perihelion distance uncertainty (AU)1.5289E-06
Minimum Orbit Intersection Distances (in AU)
for orbit epoch: 2460400.5, reference: E2024-D35
Mercury1.21679
Venus0.89833
Earth0.61948
Mars0.28993
Jupiter2.58605
Saturn6.44837
Uranus15.5909
Neptune27.5686

Observations

522 total observations over interval: 1998 09 19.19180 – 2024 02 15.438549
These data are available for download (format description).

Date (UT) J2000 RA J2000 Dec Magn Location Ref
1998 09 19.19180 22 36 37.38 +42 17 30.5   703 – Catalina Sky Survey MPS 2337
1998 09 19.20548 22 36 35.92 +42 17 40.6   703 – Catalina Sky Survey MPS 2337
1998 09 19.21713 22 36 34.67 +42 17 49.8 18.0 R 703 – Catalina Sky Survey MPS 2337
1998 09 20.11955 22 35 02.59 +42 28 18.9   703 – Catalina Sky Survey MPS 2337
1998 09 20.12960 22 35 01.31 +42 28 25.4   703 – Catalina Sky Survey MPS 2337
1998 09 20.31630 22 34 41.73 +42 30 31.1   703 – Catalina Sky Survey MPS 2337
1998 09 21.15170 22 33 18.75 +42 39 28.3   703 – Catalina Sky Survey MPS 2337
1998 09 21.25973 22 33 07.38 +42 40 35.7   703 – Catalina Sky Survey MPS 2337
1998 09 22.00152 22 31 54.09 +42 47 54.5   557 – Ondrejov MPS 2337
1998 09 22.00383 22 31 53.84 +42 47 56.2 18.9 V 557 – Ondrejov MPS 2337
1998 09 22.00405 22 31 53.95 +42 47 56.7 18.6 R 611 – Starkenburg Sternwarte, Heppenheim MPS 2337
1998 09 22.00694 22 31 53.58 +42 47 57.9 18.7 R 611 – Starkenburg Sternwarte, Heppenheim MPS 2337
1998 09 22.21397 22 31 34.02 +42 50 01.5   703 – Catalina Sky Survey MPS 2337
1998 09 22.21654 22 31 33.82 +42 50 03.5   703 – Catalina Sky Survey MPS 2337
1998 09 22.30117 22 31 25.30 +42 50 47.4   658 – Dominion Astrophysical Observatory MPS 2337
1998 09 22.30397 22 31 25.00 +42 50 48.3   658 – Dominion Astrophysical Observatory MPS 2337
1998 09 22.30644 22 31 24.75 +42 50 50.5   658 – Dominion Astrophysical Observatory MPS 2337
1998 09 22.84429 22 30 33.30 +42 55 47.3 18.8 V 104 – San Marcello Pistoiese MPS 2337
1998 09 22.84780 22 30 32.98 +42 55 49.5   104 – San Marcello Pistoiese MPS 2337
1998 09 22.85139 22 30 32.66 +42 55 51.3   104 – San Marcello Pistoiese MPS 2337
1998 09 22.86011 22 30 31.85 +42 55 56.1   104 – San Marcello Pistoiese MPS 2337
1998 09 22.86494 22 30 31.22 +42 55 57.4   557 – Ondrejov MPS 2337
1998 09 22.86726 22 30 31.00 +42 55 58.6   557 – Ondrejov MPS 2337
1998 09 22.86958 22 30 30.76 +42 55 59.8   557 – Ondrejov MPS 2337
1998 09 22.87191 22 30 30.52 +42 56 01.1 18.0 V 557 – Ondrejov MPS 2337
1998 10 16.08840 22 08 45.76 +43 30 56.1   703 – Catalina Sky Survey MPS 2669
1998 10 16.10891 22 08 45.18 +43 30 51.7   703 – Catalina Sky Survey MPS 2669
2005 11 20.25493 02 39 27.03 +66 12 21.8 19.0   704 – Lincoln Laboratory ETS, New Mexico MPS 151274
2005 11 20.26754 02 39 25.83 +66 12 10.6 19.1   704 – Lincoln Laboratory ETS, New Mexico MPS 151274
2005 11 20.29280 02 39 23.87 +66 11 47.5 19.7   704 – Lincoln Laboratory ETS, New Mexico MPS 151274
2005 11 20.30551 02 39 22.45 +66 11 36.4 19.3   704 – Lincoln Laboratory ETS, New Mexico MPS 151274
2005 11 21.18783 02 38 13.03 +65 58 26.5 19.3   704 – Lincoln Laboratory ETS, New Mexico MPS 151274
2005 11 21.20030 02 38 11.95 +65 58 17.3 20.0   704 – Lincoln Laboratory ETS, New Mexico MPS 151274
2005 11 21.21285 02 38 10.90 +65 58 03.2 19.5   704 – Lincoln Laboratory ETS, New Mexico MPS 151274
2005 11 21.22529 02 38 09.74 +65 57 52.4 19.4   704 – Lincoln Laboratory ETS, New Mexico MPS 151274
2005 11 21.23784 02 38 08.79 +65 57 41.2 19.2   704 – Lincoln Laboratory ETS, New Mexico MPS 151274
2005 11 22.19057 02 36 57.07 +65 42 54.3 19.3   704 – Lincoln Laboratory ETS, New Mexico MPS 151274
2005 11 22.20320 02 36 55.92 +65 42 41.7 20.2   704 – Lincoln Laboratory ETS, New Mexico MPS 151274
2005 11 22.21600 02 36 54.96 +65 42 30.1 19.8   704 – Lincoln Laboratory ETS, New Mexico MPS 151274
2005 11 22.22869 02 36 54.10 +65 42 18.3 19.5   704 – Lincoln Laboratory ETS, New Mexico MPS 151274
2005 11 22.24147 02 36 52.97 +65 42 05.9 19.6   704 – Lincoln Laboratory ETS, New Mexico MPS 151274
2005 12 21.20026 02 31 46.75 +55 43 22.9 19.8   704 – Lincoln Laboratory ETS, New Mexico MPS 172694
2005 12 21.21329 02 31 47.31 +55 43 05.2 20.0   704 – Lincoln Laboratory ETS, New Mexico MPS 172694
2005 12 21.22665 02 31 47.79 +55 42 47.5 20.2   704 – Lincoln Laboratory ETS, New Mexico MPS 172694
2005 12 21.24013 02 31 48.35 +55 42 28.5 20.3   704 – Lincoln Laboratory ETS, New Mexico MPS 172694
2005 12 21.25342 02 31 48.94 +55 42 10.8 19.4   704 – Lincoln Laboratory ETS, New Mexico MPS 172694
2010 02 15.25397 09 03 59.14 +10 22 16.0 21.2 V G96 – Mt. Lemmon Survey MPS 312920
2010 02 15.26023 09 03 58.68 +10 22 15.8 21.3 V G96 – Mt. Lemmon Survey MPS 312920
2010 02 15.26663 09 03 58.17 +10 22 15.7 21.3 V G96 – Mt. Lemmon Survey MPS 312920
2010 02 15.27288 09 03 57.74 +10 22 14.9 20.9 V G96 – Mt. Lemmon Survey MPS 312920
2012 10 26.567818 07 17 44.614 +54 04 39.01 20.3 r F51 – Pan-STARRS 1, Haleakala MPS 439424
2012 10 26.580480 07 17 45.129 +54 04 42.12 19.9 r F51 – Pan-STARRS 1, Haleakala MPS 439424
2012 10 26.595390 07 17 45.744 +54 04 45.73 20.3 g F51 – Pan-STARRS 1, Haleakala MPS 439424
2012 10 26.608732 07 17 46.290 +54 04 48.86 20.1 g F51 – Pan-STARRS 1, Haleakala MPS 439424
2012 12 07.51868 06 47 48.509 +55 05 49.24 19.7 r F51 – Pan-STARRS 1, Haleakala MPS 445949
2012 12 07.53075 06 47 46.980 +55 05 45.72 19.4 r F51 – Pan-STARRS 1, Haleakala MPS 445949
2012 12 10.19090 06 42 15.30 +54 51 31.1 19.4 V 703 – Catalina Sky Survey MPS 445949
2012 12 10.19771 06 42 14.36 +54 51 29.1 19.3 V 703 – Catalina Sky Survey MPS 445949
2012 12 10.20457 06 42 13.46 +54 51 26.7 18.9 V 703 – Catalina Sky Survey MPS 445949
2012 12 10.21147 06 42 12.63 +54 51 23.7 19.0 V 703 – Catalina Sky Survey MPS 445949
2013 01 18.35863 05 35 14.245 +45 28 38.46 20.4 r F51 – Pan-STARRS 1, Haleakala MPS 453184
2013 01 18.37023 05 35 13.684 +45 28 25.47 20.4 r F51 – Pan-STARRS 1, Haleakala MPS 453184
2015 06 27.51663 20 49 56.879 -38 36 35.99 19.0 i F52 – Pan-STARRS 2, Haleakala MPS 614568
2015 06 27.52474 20 49 56.372 -38 36 32.32 18.6 i F52 – Pan-STARRS 2, Haleakala MPS 614568
2015 07 11.02324 20 32 14.70 -36 17 57.7 18.2 R Y00 – SONEAR Observatory, Oliveira MPS 615860
2015 07 11.03234 20 32 13.79 -36 17 51.0 18.4 R Y00 – SONEAR Observatory, Oliveira MPS 615860
2015 07 11.04329 20 32 12.71 -36 17 43.1 18.4 R Y00 – SONEAR Observatory, Oliveira MPS 615860
2015 07 24.43491 20 07 48.667 -32 33 12.75 18.1 w F51 – Pan-STARRS 1, Haleakala MPS 618429
2015 07 24.44523 20 07 47.426 -32 33 00.13 18.4 w F51 – Pan-STARRS 1, Haleakala MPS 618429
2015 07 24.45553 20 07 46.187 -32 32 47.53 18.7 w F51 – Pan-STARRS 1, Haleakala MPS 618429
2015 07 24.46585 20 07 44.946 -32 32 34.87 18.4 w F51 – Pan-STARRS 1, Haleakala MPS 618429
2015 08 14.21543 19 32 44.11 -24 09 40.0 18.2 r G45 – Space Surveillance Telescope, Atom Site MPS 623178
2015 08 14.21550 19 32 44.09 -24 09 40.0 18.1 r G45 – Space Surveillance Telescope, Atom Site MPS 623178
2015 08 14.22008 19 32 43.70 -24 09 32.7 17.6 r G45 – Space Surveillance Telescope, Atom Site MPS 623178
2015 08 14.22015 19 32 43.72 -24 09 32.1 17.7 r G45 – Space Surveillance Telescope, Atom Site MPS 623178
2015 08 14.22490 19 32 43.31 -24 09 25.3 17.9 r G45 – Space Surveillance Telescope, Atom Site MPS 623178
2015 08 14.22541 19 32 43.29 -24 09 24.2 19.1 r G45 – Space Surveillance Telescope, Atom Site MPS 623178
2015 08 14.23453 19 32 42.53 -24 09 09.6 17.6 r G45 – Space Surveillance Telescope, Atom Site MPS 623178
2015 08 14.23460 19 32 42.54 -24 09 10.1 16.7 r G45 – Space Surveillance Telescope, Atom Site MPS 623178
2015 08 17.34040 19 29 00.037 -22 47 08.54 19.1 w F51 – Pan-STARRS 1, Haleakala MPS 623178
2015 08 17.35147 19 28 59.245 -22 46 51.02 18.6 w F51 – Pan-STARRS 1, Haleakala MPS 623178
2015 08 17.36252 19 28 58.456 -22 46 33.55 18.2 w F51 – Pan-STARRS 1, Haleakala MPS 623178
2015 11 14.10595 20 42 41.98 +04 03 03.7 20.1 V G96 – Mt. Lemmon Survey MPS 653322
2015 11 14.11002 20 42 42.48 +04 03 06.9 20.2 V G96 – Mt. Lemmon Survey MPS 653322
2015 11 14.11410 20 42 42.97 +04 03 10.2 20.2 V G96 – Mt. Lemmon Survey MPS 653322
2015 11 14.11817 20 42 43.44 +04 03 13.5 20.4 V G96 – Mt. Lemmon Survey MPS 653322
2017 01 26.49072 10 08 28.492 +01 36 54.40 20.8 w F51 – Pan-STARRS 1, Haleakala MPS 761917
2017 01 26.49137 10 08 28.455 +01 36 54.12 20.8 w F51 – Pan-STARRS 1, Haleakala MPS 761917
2017 01 26.50223 10 08 27.725 +01 36 52.60 20.7 w F51 – Pan-STARRS 1, Haleakala MPS 761917
2017 01 26.51376 10 08 26.960 +01 36 50.76 20.7 w F51 – Pan-STARRS 1, Haleakala MPS 761917
2017 01 26.52534 10 08 26.191 +01 36 48.91 21.0 w F51 – Pan-STARRS 1, Haleakala MPS 761917
